EW8073 Weather Reports


time (UTC)temp
C
wind
direction
speed
KPH
gust
KPH
rain 1hr
cm
rain 24hr
cm
rain mn
cm
humidity
%
barometer
mb
20260905035908 26 97 0.0 1.6 0.00 0.00 0.00 36 1014.7
20260905035407 26 95 0.0 1.6 0.00 0.00 0.00 35 1015.0
20260905034907 26 90 0.0 1.6 0.00 0.00 0.00 34 1015.0
20260905034407 26 90 0.0 0.0 0.00 0.00 0.00 34 1015.1
20260905033908 26 90 0.0 0.0 0.00 0.00 0.00 33 1015.0
20260905032908 26 90 0.0 0.0 0.00 0.00 0.00 32 1015.0
20260905032407 27 90 0.0 0.0 0.00 0.00 0.00 32 1014.7
20260905031908 27 90 0.0 0.0 0.00 0.00 0.00 32 1014.7
20260905031409 27 90 0.0 0.0 0.00 0.00 0.00 31 1014.7
20260905030905 27 90 0.0 0.0 0.00 0.00 0.00 31 1014.7
20260905030406 27 90 0.0 0.0 0.00 0.00 0.00 30 1014.7
20260905025400 27 90 0.0 3.2 0.00 0.00 0.00 30 1014.7
20260905024853 28 89 0.0 3.2 0.00 0.00 0.00 30 1014.7
20260905024346 28 89 0.0 3.2 0.00 0.00 0.00 29 1014.6
20260905023841 28 89 0.0 6.4 0.00 0.00 0.00 29 1014.5
20260905023335 28 86 0.0 6.4 0.00 0.00 0.00 29 1014.4
20260905022828 28 76 0.0 0.0 0.00 0.00 0.00 28 1014.5
20260905022323 28 74 0.0 0.0 0.00 0.00 0.00 28 1014.5
20260905021817 28 74 0.0 0.0 0.00 0.00 0.00 28 1014.3
20260905021311 28 74 0.0 0.0 0.00 0.00 0.00 28 1014.3
20260905020806 28 74 0.0 0.0 0.00 0.00 0.00 28 1014.1
20260905020300 28 74 0.0 0.0 0.00 0.00 0.00 27 1014.1
20260905015753 28 75 0.0 0.0 0.00 0.00 0.00 27 1014.1
20260905015246 29 69 0.0 0.0 0.00 0.00 0.00 27 1014.1
20260905014235 29 67 0.0 0.0 0.00 0.00 0.00 26 1014.0
20260905013730 30 67 0.0 0.0 0.00 0.00 0.00 26 1014.0
20260905013222 30 67 0.0 0.0 0.00 0.00 0.00 26 1013.9
20260905012717 30 65 0.0 0.0 0.00 0.00 0.00 26 1013.9
20260905011718 30 63 0.0 0.0 0.00 0.00 0.00 25 1013.9
20260905011217 31 44 0.0 0.0 0.00 0.00 0.00 25 1013.8
20260905010719 31 104 0.0 0.0 0.00 0.00 0.00 25 1013.8
20260905005209 31 258 0.0 0.0 0.00 0.00 0.00 26 1013.8
20260905004207 31 103 0.0 0.0 0.00 0.00 0.00 25 1013.8
20260905003707 32 104 0.0 0.0 0.00 0.00 0.00 24 1013.8
20260905003207 32 101 0.0 0.0 0.00 0.00 0.00 24 1013.9
20260905002707 32 26 0.0 3.2 0.00 0.00 0.00 25 1013.8
20260905002207 32 131 0.0 3.2 0.00 0.00 0.00 25 1013.8
20260905001708 32 132 0.0 3.2 0.00 0.00 0.00 24 1013.7
20260905001208 32 125 0.0 1.6 0.00 0.00 0.00 24 1013.7
20260905000707 32 292 0.0 0.0 0.00 0.00 0.00 24 1013.8
20260904235708 32 162 0.0 0.0 0.00 0.00 0.00 25 1013.6
20260904235201 32 239 0.0 0.0 0.00 0.00 0.00 25 1013.6
20260904234654 32 101 0.0 0.0 0.00 0.00 0.00 24 1013.6
20260904233644 32 62 0.0 8.0 0.00 0.00 0.00 24 1013.6
20260904233137 32 159 0.0 8.0 0.00 0.00 0.00 23 1013.4
20260904232631 33 249 0.0 0.0 0.00 0.00 0.00 22 1013.4
20260904232125 33 78 0.0 4.8 0.00 0.00 0.00 23 1013.3
20260904225048 33 132 0.0 0.0 0.00 0.00 0.00 23 1013.4
20260904224544 33 123 0.0 0.0 0.00 0.00 0.00 24 1013.4
20260904223532 33 207 0.0 9.7 0.00 0.00 0.00 24 1013.4
20260904223025 33 103 0.0 1.6 0.00 0.00 0.00 23 1013.3
20260904222518 33 196 0.0 0.0 0.00 0.00 0.00 23 1013.3
20260904222013 33 202 0.0 0.0 0.00 0.00 0.00 23 1013.4
20260904221004 33 136 0.0 0.0 0.00 0.00 0.00 21 1013.4
20260904220506 33 115 0.0 0.0 0.00 0.00 0.00 23 1013.4
20260904220005 33 57 0.0 0.0 0.00 0.00 0.00 22 1013.6
20260904215003 33 225 0.0 6.4 0.00 0.00 0.00 22 1013.6
20260904214502 33 61 0.0 6.4 0.00 0.00 0.00 25 1013.6
20260904213958 34 83 0.0 1.6 0.00 0.00 0.00 22 1013.7
20260904213500 33 88 0.0 0.0 0.00 0.00 0.00 24 1013.6
20260904212959 33 86 0.0 0.0 0.00 0.00 0.00 20 1013.7
20260904212457 33 208 0.0 0.0 0.00 0.00 0.00 21 1013.8
20260904211957 33 208 0.0 0.0 0.00 0.00 0.00 22 1013.9
20260904211457 33 209 0.0 0.0 0.00 0.00 0.00 26 1013.8
20260904210957 33 209 0.0 0.0 0.00 0.00 0.00 24 1014.0
20260904205955 33 209 0.0 0.0 0.00 0.00 0.00 28 1014.1
20260904205455 33 209 0.0 0.0 0.00 0.00 0.00 18 1014.3
20260904204954 33 209 0.0 0.0 0.00 0.00 0.00 25 1014.4
20260904204453 33 123 0.0 4.8 0.00 0.00 0.00 22 1014.5
20260904203957 32 173 0.0 4.8 0.00 0.00 0.00 24 1014.5
20260904202438 33 147 0.0 0.0 0.00 0.00 0.00 23 1014.7
20260904201425 32 146 0.0 6.4 0.00 0.00 0.00 26 1015.0
20260904200922 31 28 0.0 3.2 0.00 0.00 0.00 24 1015.0
20260904200410 31 68 0.0 0.0 0.00 0.00 0.00 27 1015.1
20260904195906 31 65 0.0 0.0 0.00 0.00 0.00 26 1015.1
20260904194910 32 136 0.0 0.0 0.00 0.00 0.00 26 1015.2
20260904193906 31 128 1.6 11.3 0.00 0.00 0.00 26 1015.3
20260904193407 31 84 0.0 11.3 0.00 0.00 0.00 24 1015.3
20260904192906 31 199 0.0 1.6 0.00 0.00 0.00 26 1015.3
20260904192408 31 173 0.0 0.0 0.00 0.00 0.00 27 1015.4
20260904191907 31 145 0.0 0.0 0.00 0.00 0.00 27 1015.5
20260904191407 31 113 0.0 0.0 0.00 0.00 0.00 27 1015.4
20260904190902 31 113 0.0 0.0 0.00 0.00 0.00 26 1015.5
20260904190403 31 102 0.0 0.0 0.00 0.00 0.00 26 1015.5
20260904185402 30 98 0.0 0.0 0.00 0.00 0.00 24 1015.7
20260904184903 30 187 0.0 0.0 0.00 0.00 0.00 24 1015.8
20260904184403 30 187 0.0 0.0 0.00 0.00 0.00 25 1015.8
20260904183903 30 187 0.0 0.0 0.00 0.00 0.00 26 1015.9
20260904183402 30 187 0.0 0.0 0.00 0.00 0.00 24 1015.9
20260904182902 30 191 0.0 0.0 0.00 0.00 0.00 26 1015.9
20260904182403 30 238 0.0 0.0 0.00 0.00 0.00 26 1016.0
20260904181904 30 239 0.0 0.0 0.00 0.00 0.00 27 1015.9
20260904180903 30 240 0.0 0.0 0.00 0.00 0.00 27 1016.1
20260904180405 29 240 0.0 0.0 0.00 0.00 0.00 27 1016.2
20260904175402 29 240 0.0 0.0 0.00 0.00 0.00 28 1016.2
20260904174902 29 240 0.0 0.0 0.00 0.00 0.00 28 1016.4
20260904174403 29 240 0.0 0.0 0.00 0.00 0.00 28 1016.2
20260904173903 28 246 0.0 0.0 0.00 0.00 0.00 29 1016.2
20260904173403 28 246 0.0 0.0 0.00 0.00 0.00 29 1016.4
20260904172902 28 246 0.0 0.0 0.00 0.00 0.00 31 1016.4
20260904172402 28 246 0.0 0.0 0.00 0.00 0.00 32 1016.4
20260904171901 28 246 0.0 0.0 0.00 0.00 0.00 31 1016.4
20260904171359 28 246 0.0 0.0 0.00 0.00 0.00 29 1016.4
20260904170856 28 246 0.0 0.0 0.00 0.00 0.00 31 1016.4
20260904170355 27 246 0.0 0.0 0.00 0.00 0.00 33 1016.5
20260904165852 27 246 0.0 0.0 0.00 0.00 0.00 34 1016.5
20260904165353 27 246 0.0 0.0 0.00 0.00 0.00 35 1016.5
20260904164852 27 246 0.0 0.0 0.00 0.00 0.00 36 1016.5
20260904164350 27 246 0.0 0.0 0.00 0.00 0.00 36 1016.6
20260904163848 26 246 0.0 0.0 0.00 0.00 0.00 35 1016.5
20260904163349 26 245 0.0 0.0 0.00 0.00 0.00 37 1016.5
20260904162346 25 246 0.0 1.6 0.00 0.00 0.00 38 1016.5
20260904161844 25 247 0.0 1.6 0.00 0.00 0.00 39 1016.5
20260904160326 24 248 0.0 0.0 0.00 0.00 0.00 39 1016.6
20260904155819 24 246 0.0 0.0 0.00 0.00 0.00 41 1016.6
20260904155314 24 250 0.0 0.0 0.00 0.00 0.00 40 1016.5
20260904154808 23 253 0.0 0.0 0.00 0.00 0.00 42 1016.5
20260904154303 23 263 0.0 9.7 0.00 0.00 0.00 42 1016.5
20260904153756 23 263 0.0 9.7 0.00 0.00 0.00 40 1016.5
20260904153249 23 234 0.0 0.0 0.00 0.00 0.00 39 1016.5
20260904152743 23 252 0.0 0.0 0.00 0.00 0.00 41 1016.6
20260904152239 22 252 0.0 1.6 0.00 0.00 0.00 44 1016.6
20260904151732 22 254 3.2 12.9 0.00 0.00 0.00 41 1016.6
20260904150720 21 254 0.0 0.0 0.00 0.00 0.00 42 1016.6
20260904150214 21 262 0.0 0.0 0.00 0.00 0.00 44 1016.5
20260904143644 19 234 0.0 0.0 0.00 0.00 0.00 55 1016.4
20260904143138 18 234 0.0 0.0 0.00 0.00 0.00 57 1016.5
20260904142632 18 233 0.0 0.0 0.00 0.00 0.00 59 1016.4
20260904142125 17 226 0.0 0.0 0.00 0.00 0.00 60 1016.2
20260904141620 17 226 0.0 0.0 0.00 0.00 0.00 60 1016.2
20260904141115 17 226 0.0 0.0 0.00 0.00 0.00 61 1016.2
20260904140609 16 226 0.0 0.0 0.00 0.00 0.00 62 1016.1
20260904135555 16 226 0.0 0.0 0.00 0.00 0.00 63 1016.0
20260904135049 15 226 0.0 0.0 0.00 0.00 0.00 64 1016.0
20260904134039 15 226 0.0 0.0 0.00 0.00 0.00 63 1015.9
20260904133533 15 226 0.0 0.0 0.00 0.00 0.00 63 1015.9
20260904133027 15 226 0.0 0.0 0.00 0.00 0.00 63 1015.8
20260904132519 15 226 0.0 0.0 0.00 0.00 0.00 63 1015.8
20260904132014 15 226 0.0 0.0 0.00 0.00 0.00 64 1015.7
20260904131001 15 226 0.0 0.0 0.00 0.00 0.00 64 1015.7
20260904130455 15 226 0.0 0.0 0.00 0.00 0.00 64 1015.7
20260904125444 15 226 0.0 0.0 0.00 0.00 0.00 64 1015.4
20260904124937 15 226 0.0 0.0 0.00 0.00 0.00 64 1015.3
20260904124432 15 226 0.0 0.0 0.00 0.00 0.00 64 1015.3
20260904123927 15 226 0.0 0.0 0.00 0.00 0.00 63 1015.3
20260904123421 15 226 0.0 0.0 0.00 0.00 0.00 63 1015.2
20260904121356 15 226 0.0 0.0 0.00 0.00 0.00 63 1015.0
20260904120856 15 226 0.0 0.0 0.00 0.00 0.00 63 1015.0
20260904120355 15 226 0.0 0.0 0.00 0.00 0.00 63 1015.0
20260904115856 15 226 0.0 0.0 0.00 0.00 0.00 63 1015.0
20260904115357 15 226 0.0 0.0 0.00 0.00 0.00 63 1015.0
20260904114855 15 226 0.0 0.0 0.00 0.00 0.00 63 1015.0
20260904114354 15 226 0.0 0.0 0.00 0.00 0.00 63 1015.0
20260904113852 15 225 0.0 0.0 0.00 0.00 0.00 63 1014.7
20260904112850 15 222 0.0 0.0 0.00 0.00 0.00 62 1014.5
20260904112350 15 222 0.0 0.0 0.00 0.00 0.00 62 1014.5
20260904111850 15 222 0.0 0.0 0.00 0.00 0.00 62 1014.5
20260904111349 15 222 0.0 0.0 0.00 0.00 0.00 61 1014.5
20260904110850 16 222 0.0 0.0 0.00 0.00 0.00 61 1014.4
20260904110351 16 222 0.0 0.0 0.00 0.00 0.00 60 1014.4
20260904105850 16 222 0.0 0.0 0.00 0.00 0.00 60 1014.4
20260904105345 16 222 0.0 0.0 0.00 0.00 0.00 60 1014.5
20260904104845 16 222 0.0 0.0 0.00 0.00 0.00 60 1014.5
20260904104343 16 222 0.0 0.0 0.00 0.00 0.00 60 1014.4
20260904103845 16 222 0.0 0.0 0.00 0.00 0.00 60 1014.3
20260904103344 16 222 0.0 0.0 0.00 0.00 0.00 59 1014.3
20260904102846 16 222 0.0 0.0 0.00 0.00 0.00 59 1014.0
20260904102342 16 222 0.0 0.0 0.00 0.00 0.00 59 1014.0
20260904101844 17 222 0.0 0.0 0.00 0.00 0.00 59 1014.0
20260904101342 17 222 0.0 0.0 0.00 0.00 0.00 59 1013.9
20260904095845 17 222 0.0 0.0 0.00 0.00 0.00 58 1013.8
20260904095341 17 222 0.0 0.0 0.00 0.00 0.00 56 1013.7
20260904094845 17 222 0.0 0.0 0.00 0.00 0.00 56 1013.7
20260904094341 17 222 0.0 0.0 0.00 0.00 0.00 55 1013.8
20260904093842 17 222 0.0 0.0 0.00 0.00 0.00 55 1013.8
20260904093342 17 222 0.0 0.0 0.00 0.00 0.00 55 1013.8
20260904092843 17 222 0.0 0.0 0.00 0.00 0.00 55 1013.7
20260904092341 18 222 0.0 0.0 0.00 0.00 0.00 54 1013.6
20260904091844 18 222 0.0 0.0 0.00 0.00 0.00 53 1013.6
20260904091342 18 222 0.0 0.0 0.00 0.00 0.00 53 1013.6
20260904090844 18 222 0.0 0.0 0.00 0.00 0.00 53 1013.6
20260904090341 18 222 0.0 0.0 0.00 0.00 0.00 53 1013.4
20260904085843 18 221 0.0 0.0 0.00 0.00 0.00 52 1013.4
20260904085342 18 221 0.0 0.0 0.00 0.00 0.00 51 1013.4
20260904084843 18 221 0.0 0.0 0.00 0.00 0.00 52 1013.4
20260904084342 18 221 0.0 0.0 0.00 0.00 0.00 51 1013.4
20260904083843 18 221 0.0 0.0 0.00 0.00 0.00 51 1013.3
20260904083339 18 221 0.0 0.0 0.00 0.00 0.00 51 1013.3
20260904082333 18 221 0.0 0.0 0.00 0.00 0.00 52 1013.2
20260904081321 18 221 0.0 0.0 0.00 0.00 0.00 52 1013.2
20260904080816 18 221 0.0 0.0 0.00 0.00 0.00 51 1013.2
20260904080311 18 221 0.0 0.0 0.00 0.00 0.00 50 1013.2
20260904075804 18 221 0.0 0.0 0.00 0.00 0.00 50 1013.3
20260904075256 19 221 0.0 0.0 0.00 0.00 0.00 50 1013.4
20260904074750 19 221 0.0 0.0 0.00 0.00 0.00 50 1013.4
20260904074246 19 221 0.0 0.0 0.00 0.00 0.00 49 1013.4
20260904073739 19 221 0.0 0.0 0.00 0.00 0.00 49 1013.4
20260904073233 19 221 0.0 0.0 0.00 0.00 0.00 48 1013.4
20260904072727 19 221 0.0 0.0 0.00 0.00 0.00 48 1013.4
20260904072220 20 221 0.0 0.0 0.00 0.00 0.00 48 1013.4
20260904071715 20 221 0.0 0.0 0.00 0.00 0.00 48 1013.6
20260904071208 20 221 0.0 0.0 0.00 0.00 0.00 47 1013.4
20260904070703 20 221 0.0 0.0 0.00 0.00 0.00 47 1013.4
20260904070203 20 221 0.0 0.0 0.00 0.00 0.00 47 1013.6
20260904065703 20 221 0.0 0.0 0.00 0.00 0.00 46 1013.6
20260904065203 20 221 0.0 0.0 0.00 0.00 0.00 46 1013.7
20260904064703 20 221 0.0 0.0 0.00 0.00 0.00 45 1013.7
20260904064204 20 221 0.0 0.0 0.00 0.00 0.00 44 1013.8
20260904063703 20 221 0.0 0.0 0.00 0.00 0.00 44 1013.7
20260904063201 21 221 0.0 0.0 0.00 0.00 0.00 44 1013.8
20260904061659 21 221 0.0 0.0 0.00 0.00 0.00 43 1013.7
20260904061159 21 221 0.0 0.0 0.00 0.00 0.00 43 1013.7
20260904060658 21 221 0.0 0.0 0.00 0.00 0.00 42 1013.7
20260904060157 21 221 0.0 0.0 0.00 0.00 0.00 42 1013.7
20260904055659 21 221 0.0 0.0 0.00 0.00 0.00 42 1013.7
20260904055155 21 221 0.0 0.0 0.00 0.00 0.00 42 1013.7
20260904053653 21 221 0.0 0.0 0.00 0.00 0.00 43 1013.7
20260904053154 21 220 0.0 0.0 0.00 0.00 0.00 43 1013.6
20260904052654 21 220 0.0 0.0 0.00 0.00 0.00 43 1013.6
20260904052153 21 220 0.0 0.0 0.00 0.00 0.00 42 1013.4
20260904051651 21 220 0.0 0.0 0.00 0.00 0.00 43 1013.6
20260904050652 21 220 0.0 0.0 0.00 0.00 0.00 41 1013.6
20260904050152 21 220 0.0 0.0 0.00 0.00 0.00 41 1013.6
20260904045651 21 220 0.0 0.0 0.00 0.00 0.00 42 1013.6
20260904045152 22 257 0.0 0.0 0.00 0.00 0.00 41 1013.4
20260904044648 22 257 0.0 0.0 0.00 0.00 0.00 41 1013.2
20260904044148 22 257 0.0 0.0 0.00 0.00 0.00 40 1013.2
20260904043647 22 257 0.0 0.0 0.00 0.00 0.00 39 1013.1
20260904043147 22 257 0.0 0.0 0.00 0.00 0.00 39 1013.1
20260904042648 22 257 0.0 0.0 0.00 0.00 0.00 38 1013.0
20260904042148 22 257 0.0 0.0 0.00 0.00 0.00 38 1013.0
20260904041147 23 257 0.0 0.0 0.00 0.00 0.00 36 1012.9
20260904040648 23 257 0.0 0.0 0.00 0.00 0.00 36 1012.7
20260904040147 23 257 0.0 0.0 0.00 0.00 0.00 35 1012.7